Location: Étang Rond
(42.7927°N, 1.0661°E)
Time: 21:43:59
(UTC+00:00)

USA 267 - Pass Details

Date: 08 November 2025
Orbit: 1100 x 1108 km, 123.0° (Epoch: 21 November)

Event Time Altitude Azimuth Distance (km) Brightness Sun altitude
Rises 04:56:09 0° 50° (NE) 3,923 6.8 -19.1°
Reaches altitude 10° 04:58:50 10° 42° (NE) 2,963 6.0 -18.6°
Maximum altitude 05:04:36 35° 340° (NNW) 1,707 4.0 -17.5°
Enters shadow 05:07:39 23° 295° (WNW) 2,136 4.2 -17.0°
